N9XP-9 Weather Reports


time (UTC)temp
F
wind
direction
speed
knots
gust
knots
rain 1hr
in
rain 24hr
in
rain mn
in
humidity
%
barometer
mb
20260506003033 53 278 0.0 0.9 0.00 0.05 0.05 43 1008.7
20260506001532 53 41 0.0 2.6 0.00 0.05 0.05 42 1008.6
20260506000031 54 26 0.0 1.7 0.00 0.05 0.05 42 1008.8
20260505234531 54 335 0.0 1.7 0.00 0.11 0.05 41 1008.6
20260505233034 54 336 0.0 1.7 0.00 0.11 0.05 40 1008.8
20260505231538 55 5 0.9 4.3 0.00 0.11 0.05 38 1008.8
20260505230031 55 170 0.0 1.7 0.00 0.11 0.05 38 1008.8
20260505224528 55 15 0.9 3.5 0.00 0.11 0.05 38 1008.9
20260505223028 55 119 0.9 5.2 0.00 0.11 0.05 37 1009.0
20260505221529 56 322 0.9 3.5 0.00 0.11 0.05 36 1008.9
20260505220046 55 352 0.0 4.3 0.00 0.11 0.05 38 1009.0
20260505214532 55 316 0.9 4.3 0.00 0.11 0.05 36 1009.2
20260505213026 55 350 0.0 7.0 0.00 0.11 0.05 36 1009.1
20260505211529 55 181 0.9 4.3 0.00 0.11 0.05 34 1009.1
20260505210024 55 9 0.9 7.8 0.00 0.11 0.05 35 1009.1
20260505204525 56 354 0.9 4.3 0.00 0.11 0.05 36 1009.1
20260505203023 55 197 0.9 3.5 0.00 0.11 0.05 35 1009.2
20260505201522 56 11 0.0 6.1 0.00 0.11 0.05 37 1009.4
20260505200021 56 257 0.9 3.5 0.00 0.11 0.05 36 1009.4
20260505194523 56 260 0.9 3.5 0.00 0.11 0.05 36 1009.3
20260505193032 56 212 0.9 4.3 0.00 0.11 0.05 34 1009.2
20260505191523 56 15 0.9 3.5 0.00 0.11 0.05 34 1009.5
20260505190018 56 231 0.9 5.2 0.00 0.11 0.05 37 1009.6
20260505184519 56 201 1.7 5.2 0.00 0.11 0.05 36 1009.6
20260505183022 56 208 0.9 4.3 0.00 0.11 0.05 39 1009.6
20260505181516 56 198 0.9 3.5 0.00 0.11 0.05 38 1009.5
20260505180016 56 317 0.9 6.1 0.00 0.11 0.05 38 1009.4
20260505174514 56 16 1.7 5.2 0.00 0.11 0.05 37 1009.4
20260505173014 56 325 3.5 7.0 0.00 0.11 0.05 37 1009.2
20260505171513 57 312 0.9 5.2 0.00 0.11 0.05 39 1009.1
20260505170012 56 307 2.6 7.0 0.00 0.11 0.05 36 1009.0
20260505164512 56 336 2.6 7.0 0.00 0.11 0.05 36 1008.7
20260505163011 56 193 0.9 4.3 0.00 0.11 0.05 39 1009.3
20260505161511 54 323 1.7 5.2 0.00 0.11 0.05 42 1009.0
20260505153007 53 56 0.0 2.6 0.00 0.11 0.05 50 1008.7
20260505151508 51 79 0.0 6.1 0.00 0.11 0.05 51 1008.6
20260505140108 47 142 0.0 2.6 0.00 0.11 0.05 76 1009.2
20260505124559 44 157 0.0 0.0 0.05 0.11 0.05 86 1009.0
20260505123057 45 157 0.0 0.9 0.03 0.09 0.03 83 1009.1
20260505121549 45 173 0.0 0.0 0.03 0.09 0.03 77 1008.8
20260505120059 46 179 0.0 0.9 0.02 0.08 0.02 76 1009.3
20260505114540 47 342 0.9 3.5 0.00 0.06 0.00 67 1008.6
20260505113038 49 2 0.0 2.6 0.00 0.06 0.00 58 1007.9
20260505111533 49 354 1.7 6.1 0.00 0.06 0.00 56 1007.2
20260505101524 50 338 0.0 2.6 0.00 0.06 0.00 58 1005.8
20260505100024 51 4 0.0 2.6 0.00 0.06 0.00 56 1005.9
20260505094519 51 339 0.9 4.3 0.00 0.06 0.00 54 1006.1
20260505093016 52 340 0.9 7.0 0.00 0.06 0.00 51 1006.1
20260505091514 53 4 1.7 7.0 0.00 0.06 0.00 50 1006.4
20260505090009 54 309 2.6 8.7 0.00 0.06 0.00 53 1005.6
20260505084517 54 319 0.0 4.3 0.00 0.06 0.00 54 1005.2
20260505083003 54 356 0.9 4.3 0.00 0.06 0.00 53 1004.7
20260505081600 54 325 0.0 5.2 0.00 0.06 0.00 53 1004.1
20260505080112 55 349 0.0 3.5 0.00 0.06 0.00 52 1003.8
20260505074555 55 339 0.0 5.2 0.00 0.06 0.00 52 1003.4
20260505073100 55 240 0.0 1.7 0.00 0.06 0.00 52 1003.4
20260505071552 55 303 0.0 4.3 0.00 0.06 0.00 51 1003.2
20260505070051 55 241 0.0 0.9 0.00 0.06 0.00 52 1003.1
20260505064556 56 330 0.0 0.9 0.00 0.06 0.00 52 1002.8
20260505063045 56 156 0.0 3.5 0.00 0.06 0.00 51 1002.7
20260505061544 56 342 0.0 3.5 0.00 0.06 0.00 52 1002.8
20260505060041 57 20 0.0 0.9 0.00 0.06 0.00 53 1002.8
20260505054540 57 188 0.0 1.7 0.00 0.06 0.00 57 1002.5
20260505053104 56 202 0.0 2.6 0.00 0.06 0.00 62 1002.6
20260505051536 56 238 0.0 0.9 0.00 0.06 0.00 63 1002.3
20260505041539 59 338 0.0 1.7 0.00 0.06 0.06 73 1001.4
20260505040029 60 146 0.0 0.0 0.00 0.06 0.06 74 1001.5
20260505034532 61 150 0.0 2.6 0.00 0.06 0.06 73 1001.2
20260505033029 61 120 0.0 3.5 0.00 0.06 0.06 72 1001.2
20260505031528 62 137 0.9 3.5 0.00 0.06 0.06 71 1000.7
20260505030027 62 174 0.0 4.3 0.00 0.06 0.06 70 1000.7
20260505024527 62 158 0.9 3.5 0.00 0.06 0.06 72 1001.0
20260505023026 61 186 0.0 5.2 0.00 0.06 0.06 73 1000.6
20260505021527 61 128 0.0 2.6 0.00 0.06 0.06 74 999.9
20260505020024 62 160 0.9 2.6 0.00 0.06 0.06 74 999.4
20260505014523 62 257 0.9 4.3 0.00 0.06 0.06 74 999.3
20260505013023 63 292 0.9 7.0 0.00 0.06 0.06 73 999.0
20260505011543 63 176 1.7 8.7 0.00 0.06 0.06 75 999.0
20260505010020 63 165 1.7 7.8 0.00 0.06 0.06 77 998.7
20260505004520 63 170 0.9 11.3 0.00 0.06 0.06 79 998.8